Precipitable_Water
0.42 0.41 0.40 0.39 0.39 0.40 0.39 0.40 0.35 0.37 0.37 0.40 0.43 0.46 0.48 0.51 0.52 0.53 0.54 0.55 0.56 0.58 0.60 0.64 0.70 0.73 0.74 0.76 0.77 0.80 0.79 0.79 0.78 0.86 0.93 0.94 0.92 0.91 0.91 0.89 0.91 0.93 0.92 0.90
0.35 0.42 0.42 0.38 0.39 0.39 0.38 0.40 0.40 0.40 0.38 0.48 0.45 0.48 0.50 0.51 0.52 0.53 0.54 0.56 0.59 0.60 0.58 0.57 0.59 0.67 0.72 0.74 0.75 0.79 0.76 0.73 0.80 0.84 0.87 0.88 0.90 0.89 0.87 0.86 0.87 0.90 0.90 0.94
0.28 0.35 0.33 0.27 0.32 0.36 0.41 0.43 0.42 0.36 0.43 0.43 0.38 0.42 0.48 0.53 0.56 0.55 0.57 0.59 0.58 0.57 0.58 0.59 0.61 0.63 0.69 0.75 0.82 0.80 0.79 0.78 0.76 0.78 0.77 0.81 0.82 0.84 0.83 0.84 0.86 0.84 0.86 0.89
0.26 0.30 0.21 0.30 0.37 0.39 0.39 0.40 0.44 0.39 0.38 0.41 0.43 0.44 0.48 0.54 0.58 0.60 0.61 0.62 0.64 0.65 0.63 0.63 0.63 0.61 0.68 0.76 0.78 0.79 0.78 0.79 0.79 0.76 0.76 0.81 0.83 0.84 0.86 0.88 0.89 0.91 0.91 0.93
0.25 0.23 0.23 0.25 0.31 0.34 0.34 0.33 0.38 0.36 0.38 0.41 0.44 0.43 0.44 0.55 0.59 0.62 0.63 0.64 0.66 0.69 0.70 0.71 0.68 0.65 0.65 0.66 0.72 0.75 0.75 0.77 0.81 0.81 0.78 0.80 0.79 0.80 0.86 0.90 0.95 0.96 1.00 1.00
0.26 0.20 0.15 0.22 0.33 0.38 0.36 0.23 0.38 0.37 0.35 0.37 0.40 0.35 0.43 0.54 0.56 0.59 0.66 0.68 0.68 0.73 0.75 0.74 0.73 0.71 0.66 0.64 0.66 0.71 0.78 0.79 0.83 0.86 0.86 0.84 0.87 0.90 0.96 1.00 1.03 1.03 0.99 1.03
0.21 0.20 0.22 0.29 0.36 0.39 0.20 0.27 0.39 0.38 0.38 0.40 0.39 0.46 0.51 0.57 0.59 0.61 0.65 0.72 0.75 0.74 0.73 0.75 0.81 0.82 0.73 0.71 0.69 0.77 0.83 0.86 0.87 0.90 0.92 0.96 0.98 1.00 1.00 1.01 1.00 0.98 0.97 0.98
0.23 0.21 0.17 0.34 0.32 0.24 0.39 0.42 0.42 0.44 0.46 0.45 0.47 0.52 0.54 0.53 0.54 0.60 0.63 0.69 0.78 0.76 0.75 0.77 0.79 0.82 0.83 0.79 0.82 0.85 0.84 0.83 0.86 0.91 0.95 0.98 1.00 1.01 1.03 1.01 0.96 0.92 0.92 0.90
0.26 0.26 0.39 0.47 0.46 0.49 0.49 0.43 0.44 0.45 0.47 0.47 0.46 0.47 0.52 0.53 0.53 0.54 0.61 0.66 0.74 0.78 0.79 0.81 0.81 0.83 0.76 0.79 0.86 0.89 0.88 0.86 0.89 0.93 0.96 0.99 1.01 1.00 0.96 0.94 0.87 0.85 0.82 0.77
0.31 0.33 0.39 0.46 0.49 0.46 0.45 0.44 0.48 0.48 0.45 0.46 0.44 0.47 0.50 0.53 0.55 0.55 0.59 0.64 0.69 0.75 0.77 0.82 0.82 0.82 0.87 0.91 0.94 0.91 0.91 0.90 0.93 0.92 0.92 0.91 0.92 0.91 0.88 0.86 0.85 0.82 0.74 0.71
0.29 0.33 0.41 0.42 0.44 0.44 0.47 0.49 0.47 0.46 0.44 0.43 0.43 0.43 0.48 0.51 0.55 0.58 0.58 0.62 0.65 0.69 0.77 0.83 0.85 0.83 0.84 0.88 0.89 0.85 0.86 0.87 0.87 0.87 0.86 0.84 0.83 0.82 0.81 0.82 0.83 0.79 0.72 0.70
0.28 0.41 0.38 0.44 0.47 0.49 0.44 0.42 0.43 0.43 0.43 0.44 0.44 0.42 0.45 0.49 0.55 0.60 0.63 0.64 0.62 0.65 0.68 0.74 0.79 0.83 0.85 0.86 0.86 0.86 0.85 0.82 0.79 0.78 0.76 0.76 0.76 0.75 0.77 0.78 0.78 0.75 0.73 0.71
0.41 0.46 0.45 0.46 0.46 0.47 0.45 0.45 0.44 0.44 0.44 0.43 0.42 0.43 0.44 0.48 0.56 0.60 0.61 0.62 0.62 0.59 0.61 0.66 0.72 0.77 0.78 0.79 0.85 0.82 0.81 0.80 0.78 0.77 0.75 0.73 0.74 0.70 0.68 0.70 0.70 0.69 0.67 0.66
0.45 0.44 0.41 0.45 0.43 0.48 0.48 0.47 0.46 0.45 0.44 0.43 0.42 0.42 0.42 0.44 0.52 0.56 0.56 0.59 0.59 0.59 0.61 0.59 0.62 0.66 0.68 0.70 0.72 0.74 0.73 0.71 0.70 0.67 0.67 0.66 0.64 0.63 0.62 0.59 0.57 0.56 0.58 0.57
0.41 0.42 0.43 0.44 0.45 0.46 0.47 0.46 0.44 0.43 0.43 0.43 0.44 0.45 0.46 0.46 0.50 0.52 0.55 0.56 0.56 0.55 0.54 0.56 0.57 0.58 0.61 0.66 0.65 0.64 0.63 0.62 0.62 0.61 0.61 0.60 0.58 0.57 0.56 0.53 0.51 0.50 0.50 0.50
0.38 0.40 0.41 0.41 0.42 0.43 0.44 0.44 0.42 0.42 0.43 0.42 0.43 0.46 0.46 0.47 0.48 0.49 0.51 0.50 0.49 0.49 0.50 0.51 0.52 0.52 0.57 0.55 0.54 0.56 0.56 0.56 0.56 0.55 0.54 0.53 0.52 0.50 0.48 0.48 0.46 0.45 0.43 0.43
0.36 0.35 0.37 0.37 0.40 0.42 0.42 0.44 0.43 0.42 0.42 0.43 0.43 0.44 0.46 0.46 0.45 0.45 0.45 0.46 0.46 0.46 0.47 0.47 0.48 0.50 0.51 0.50 0.49 0.49 0.47 0.48 0.48 0.48 0.47 0.46 0.45 0.44 0.43 0.42 0.40 0.39 0.38 0.38
0.39 0.41 0.40 0.40 0.38 0.38 0.40 0.42 0.42 0.42 0.42 0.43 0.42 0.41 0.41 0.41 0.40 0.41 0.42 0.42 0.41 0.41 0.42 0.43 0.44 0.45 0.45 0.45 0.45 0.44 0.43 0.42 0.41 0.40 0.40 0.39 0.38 0.38 0.36 0.35 0.33 0.31 0.29 0.28
0.39 0.39 0.40 0.40 0.39 0.39 0.40 0.41 0.40 0.41 0.41 0.40 0.40 0.38 0.39 0.39 0.38 0.37 0.37 0.37 0.36 0.36 0.36 0.38 0.37 0.37 0.36 0.36 0.36 0.34 0.33 0.31 0.29 0.28 0.26 0.25 0.23 0.22 0.21 0.20 0.19 0.17 0.16 0.15
0.37 0.38 0.38 0.37 0.38 0.39 0.38 0.39 0.39 0.38 0.38 0.38 0.37 0.36 0.35 0.35 0.35 0.35 0.34 0.32 0.31 0.29 0.27 0.25 0.22 0.20 0.19 0.18 0.18 0.19 0.18 0.17 0.16 0.15 0.15 0.15 0.14 0.14 0.13 0.12 0.12 0.12 0.12 0.12
0.34 0.34 0.34 0.35 0.36 0.37 0.37 0.37 0.36 0.35 0.35 0.35 0.34 0.33 0.32 0.31 0.28 0.24 0.20 0.17 0.17 0.17 0.16 0.14 0.14 0.13 0.13 0.13 0.13 0.13 0.13 0.12 0.12 0.12 0.11 0.11 0.11 0.11 0.11 0.10 0.10 0.10 0.09 0.09
0.34 0.33 0.34 0.34 0.35 0.34 0.35 0.35 0.34 0.33 0.32 0.31 0.27 0.24 0.21 0.18 0.17 0.15 0.15 0.13 0.13 0.13 0.12 0.11 0.11 0.11 0.11 0.11 0.11 0.11 0.10 0.10 0.10 0.10 0.10 0.10 0.09 0.09 0.08 0.08 0.08 0.08 0.08 0.08
0.34 0.33 0.33 0.33 0.33 0.32 0.33 0.32 0.29 0.26 0.23 0.20 0.18 0.16 0.15 0.14 0.13 0.12 0.10 0.11 0.11 0.11 0.11 0.10 0.10 0.10 0.10 0.10 0.10 0.09 0.09 0.08 0.08 0.08 0.08 0.08 0.08 0.08 0.08 0.07 0.08 0.07 0.07 0.07
0.33 0.32 0.32 0.32 0.31 0.28 0.25 0.23 0.21 0.19 0.17 0.15 0.14 0.14 0.13 0.12 0.11 0.11 0.11 0.10 0.09 0.09 0.08 0.08 0.08 0.08 0.08 0.09 0.08 0.08 0.08 0.08 0.08 0.08 0.08 0.07 0.08 0.07 0.07 0.07 0.07 0.07 0.07 0.07
0.32 0.31 0.30 0.27 0.24 0.21 0.18 0.16 0.14 0.13 0.12 0.11 0.11 0.11 0.11 0.11 0.09 0.09 0.09 0.08 0.07 0.08 0.08 0.07 0.07 0.08 0.08 0.08 0.08 0.08 0.08 0.07 0.07 0.07 0.07 0.07 0.07 0.07 0.07 0.07 0.07 0.07 0.07 0.07
0.29 0.25 0.22 0.19 0.16 0.14 0.13 0.12 0.10 0.10 0.10 0.09 0.09 0.09 0.09 0.09 0.09 0.09 0.08 0.08 0.08 0.07 0.08 0.08 0.07 0.08 0.08 0.08 0.08 0.07 0.07 0.07 0.07 0.07 0.07 0.07 0.07 0.07 0.07 0.07 0.07 0.07 0.07 0.07
0.19 0.15 0.12 0.11 0.10 0.10 0.10 0.10 0.09 0.08 0.09 0.09 0.08 0.09 0.09 0.09 0.08 0.08 0.08 0.08 0.08 0.08 0.08 0.08 0.08 0.07 0.07 0.07 0.07 0.07 0.07 0.07 0.07 0.06 0.07 0.07 0.07 0.07 0.07 0.07 0.07 0.07 0.07 0.07
Wind_Speed
14 13 14 16 17 18 20 20 19 17 20 19 17 17 18 19 19 19 17 18 19 20 20 21 21 23 24 24 24 25 25 25 27 28 29 30 30 31 31 32 33 33 34 36
14 14 15 16 18 18 19 21 22 22 22 17 19 19 18 19 21 22 22 21 19 21 22 23 24 25 27 27 26 27 27 27 27 28 29 31 32 31 31 32 33 34 36 37
17 15 15 18 21 18 17 17 18 18 16 17 18 17 18 20 20 21 22 25 25 24 23 24 25 27 28 28 28 28 28 28 28 27 28 29 29 30 30 31 31 33 35 37
17 15 18 15 14 16 17 16 17 16 16 17 19 21 21 17 20 22 24 26 27 27 28 28 26 26 28 30 31 31 31 31 30 30 29 29 30 31 31 31 31 32 32 34
18 21 18 17 17 16 17 14 14 15 17 18 20 22 21 17 19 22 24 27 29 30 29 29 28 27 27 30 33 33 32 32 31 32 32 31 31 31 31 32 32 32 32 33
19 20 19 14 14 16 16 17 15 17 18 20 20 20 19 21 22 23 24 25 28 29 29 29 29 28 28 28 28 31 31 31 31 31 33 34 33 32 32 31 30 30 30 31
22 20 19 20 18 18 20 15 18 18 20 21 20 21 24 25 25 25 24 25 25 26 28 30 30 32 31 29 28 28 29 31 32 32 32 33 33 32 31 30 30 30 30 31
19 17 16 11 13 14 11 13 14 17 19 20 21 22 23 25 26 26 27 26 25 24 25 28 30 30 30 31 29 28 28 29 29 30 31 31 32 32 31 31 30 30 30 29
14 13 9 8 7 8 9 11 13 15 16 18 20 21 23 23 24 25 25 26 25 24 23 23 24 25 28 29 30 29 29 27 28 28 29 29 30 29 30 30 30 30 31 30
11 11 11 11 10 10 11 12 13 14 15 17 19 21 22 23 24 24 25 26 26 24 21 21 21 21 20 22 23 24 24 24 26 26 26 26 27 28 30 31 31 30 29 29
14 14 11 12 12 13 12 13 15 16 17 18 20 21 22 22 23 24 24 23 23 24 22 20 20 20 20 20 20 21 21 22 22 22 23 24 24 27 28 29 31 30 27 27
14 11 13 13 13 15 17 18 18 19 20 20 21 22 22 22 22 21 20 21 20 20 19 21 22 20 21 22 22 22 22 22 23 24 24 25 26 26 23 23 23 24 24 26
13 15 17 18 18 18 19 19 19 20 21 22 22 22 21 20 18 17 17 14 17 18 18 18 21 18 21 20 17 20 24 24 25 26 26 26 24 23 21 20 20 19 21 22
14 16 18 18 19 19 19 20 21 21 21 22 22 22 21 19 18 17 17 16 14 14 15 16 18 18 19 18 17 18 17 16 17 18 18 19 18 19 20 20 20 20 21 22
17 18 20 19 19 20 20 21 21 22 22 21 19 17 16 14 14 14 13 12 12 12 13 13 13 13 15 12 14 16 17 17 18 17 16 17 18 18 19 19 19 21 23 24
19 18 17 18 19 20 21 22 20 20 18 17 15 14 11 10 10 9 10 12 12 12 12 12 12 12 12 13 13 13 14 15 17 19 18 19 20 21 21 22 23 25 26 28
19 19 19 18 18 18 18 18 16 15 13 12 12 11 10 9 9 10 9 9 9 10 11 12 13 14 14 15 14 15 16 17 18 19 20 21 22 22 24 25 26 28 29 30
17 18 18 17 15 14 14 13 12 12 10 10 10 9 9 9 9 9 9 10 11 11 12 13 14 14 15 16 16 16 17 18 19 20 21 22 23 25 26 27 28 29 30 31
14 13 12 11 11 11 11 10 9 8 8 8 7 7 7 8 9 10 11 11 12 13 14 15 15 16 16 17 18 19 19 20 22 23 24 25 26 27 28 29 30 31 33 34
10 8 8 7 6 5 4 4 3 3 5 6 6 7 7 8 10 10 11 12 13 14 16 17 18 19 19 20 21 21 22 23 24 25 26 27 28 29 30 30 31 32 33 34
6 6 5 4 4 3 3 3 3 3 4 4 5 6 8 10 11 13 13 14 16 17 17 18 19 20 20 21 21 22 23 24 24 25 27 27 28 29 30 31 31 32 33 34
5 5 4 3 3 2 2 3 4 5 5 6 8 9 11 12 13 14 15 16 18 19 20 20 21 22 22 22 23 23 24 25 25 26 27 28 29 29 30 31 32 33 34 35
4 4 4 3 3 4 4 6 7 8 9 10 12 13 14 16 17 18 19 20 21 21 22 22 23 23 23 24 24 25 26 26 27 28 29 29 30 31 32 32 33 33 34 35
3 4 4 5 6 7 8 10 10 11 12 14 15 17 18 18 19 20 20 21 22 22 23 24 25 25 25 26 26 27 28 28 29 30 30 30 31 31 32 32 33 33 34 34
4 5 7 8 10 11 12 13 14 15 16 17 19 19 20 21 22 22 23 24 24 24 25 25 26 26 26 27 27 28 28 29 29 30 30 30 31 31 32 32 33 33 33 33
6 8 10 11 13 15 16 18 19 20 21 22 22 23 23 23 23 24 24 24 24 25 25 25 26 26 26 27 27 28 29 29 29 30 30 30 30 30 30 30 30 30 30 30
11 12 14 16 18 19 21 22 22 23 23 24 24 24 24 24 23 23 23 23 24 24 25 25 25 25 26 26 27 27 27 28 28 28 28 29 29 29 29 29 29 29 29 29
Wind_Direction
219 220 221 220 224 228 233 238 243 248 247 252 256 266 267 267 265 263 264 257 252 252 254 250 248 244 242 243 242 241 241 243 245 244 243 242 242 243 245 247 249 250 252 254
221 221 226 234 233 238 241 242 248 250 255 254 265 265 267 268 267 265 262 261 264 257 257 256 252 250 245 245 244 243 244 247 248 247 245 243 244 245 246 249 252 254 256 258
235 229 239 243 237 238 236 237 242 243 247 262 269 271 275 274 269 266 265 263 262 264 264 264 260 253 248 246 243 244 248 248 247 247 244 241 241 244 247 251 255 258 260 260
238 236 240 241 247 236 238 241 241 254 264 266 269 272 275 272 275 272 270 268 266 265 265 265 264 257 251 248 246 249 250 250 247 245 244 243 245 248 250 253 256 260 263 264
233 232 252 247 234 234 235 238 251 258 266 272 274 274 269 275 283 280 277 271 267 266 266 263 261 259 257 253 251 249 249 246 247 246 245 246 248 250 252 255 258 261 264 266
232 238 240 240 237 242 242 242 256 264 273 275 277 268 265 285 285 287 284 281 274 268 265 263 260 260 258 256 254 247 246 246 247 248 246 247 249 252 255 256 260 263 265 268
232 240 246 249 244 240 241 251 271 274 275 275 274 273 277 281 284 286 290 286 284 274 267 265 263 258 257 256 254 253 250 249 248 248 249 249 250 252 255 257 260 264 268 272
225 231 240 240 229 230 244 260 272 278 278 276 278 280 282 283 284 284 285 289 286 281 275 268 266 260 255 255 256 254 252 251 252 251 250 252 250 252 255 256 260 263 268 272
210 222 214 209 197 227 260 271 279 284 287 285 283 285 285 287 290 287 283 283 285 281 279 276 272 262 257 258 254 253 252 252 252 251 252 254 251 251 255 258 260 264 268 271
214 217 219 224 239 264 274 276 281 288 292 294 292 290 289 289 289 289 286 282 279 277 276 276 273 268 261 257 252 250 250 250 249 251 252 254 256 258 258 259 261 266 267 267
231 236 233 239 255 270 276 280 283 287 291 294 295 294 293 291 292 289 288 283 281 276 265 267 271 266 262 257 252 250 249 248 249 251 252 254 259 263 264 262 266 262 265 264
241 243 252 250 260 272 278 283 285 288 291 292 295 295 292 288 293 291 285 284 276 276 270 266 265 262 263 262 255 252 248 253 255 254 256 255 258 261 265 264 265 261 264 266
247 253 260 266 266 275 278 282 286 286 288 291 293 294 293 287 287 292 287 290 281 276 275 271 267 273 271 262 253 255 250 263 261 256 259 263 259 261 262 267 268 265 269 269
261 268 264 271 268 277 278 280 283 286 288 290 289 289 290 284 280 286 294 285 287 283 281 277 272 264 265 263 261 263 263 263 266 266 265 264 266 262 266 265 266 270 274 273
268 272 272 270 274 277 280 282 284 285 285 286 287 289 288 281 279 282 291 292 289 289 289 290 287 273 268 274 269 265 261 263 266 271 272 267 266 268 267 266 268 270 273 275
274 272 269 273 276 279 278 281 283 285 280 279 276 275 280 277 275 288 288 294 293 293 293 293 294 292 283 274 272 273 273 273 272 271 273 273 274 277 277 274 276 278 279 280
271 265 273 273 276 279 286 278 276 277 275 270 268 263 264 280 284 290 292 297 302 302 297 295 296 293 289 286 283 279 277 277 277 278 277 278 277 280 280 279 280 283 285 285
271 270 272 270 269 273 279 274 274 269 268 260 261 263 265 272 285 290 295 295 300 303 302 298 295 296 295 292 288 285 283 281 281 282 282 282 282 282 284 284 285 286 286 287
269 266 266 263 267 269 271 273 268 257 252 254 258 264 269 278 285 292 294 296 299 301 302 299 299 298 297 296 291 289 287 286 286 285 285 286 286 287 287 286 287 288 288 288
257 252 246 252 250 257 265 260 259 254 260 259 257 262 274 285 289 292 296 302 303 299 300 298 296 298 297 296 293 291 291 289 289 289 288 288 288 288 288 289 289 290 290 290
226 222 223 220 239 250 259 260 258 272 288 279 277 280 285 290 294 293 294 295 300 300 300 301 300 298 297 296 296 295 294 292 292 292 291 291 291 291 290 291 292 292 292 293
203 194 196 199 206 236 258 277 283 282 285 287 287 286 287 290 295 299 298 297 297 299 299 299 299 299 298 297 296 296 296 295 294 294 294 294 293 293 293 293 294 294 295 295
171 176 188 214 242 256 275 291 291 289 290 291 292 293 294 294 294 293 294 298 297 298 298 299 299 299 298 298 297 297 297 297 297 296 296 295 295 295 295 295 295 295 296 297
195 212 238 258 267 275 284 289 291 291 290 292 294 293 292 293 295 295 295 296 298 298 298 299 299 299 299 298 298 298 298 298 298 298 297 297 296 296 296 297 297 297 297 298
247 259 270 277 283 286 288 289 291 291 292 294 295 295 296 295 293 294 294 295 297 297 298 299 300 299 299 299 299 299 299 299 299 299 299 298 298 297 297 298 298 299 299 299
278 285 289 291 291 291 291 291 292 292 292 292 293 293 293 293 294 294 295 296 297 298 298 299 300 300 300 300 301 301 301 301 300 300 300 299 299 299 299 299 299 300 300 301
291 292 293 294 295 295 295 294 293 293 293 292 291 292 292 293 293 294 295 296 297 298 300 300 301 302 302 303 303 303 303 303 303 302 301 301 300 300 300 300 300 300 301 301